Regional Weather Roundup
Issued by NWS Goodland, KS

Home | Current Version | Previous Version | Text Only | Print | Product List | Glossary Off
Versions: 1 2 3 4 5 6 7 8 9 10 11 12 13 14 15 16 17 18 19 20 21 22 23 24 25 26 27 28 29 30 31 32 33 34 35 36 37 38 39 40 41 42 43 44 45 46 47 48 49 50

000
ASUS43 KGLD 010459
RWRGLD

GOODLAND FORECAST AREA HOURLY WEATHER ROUNDUP
NATIONAL WEATHER SERVICE GOODLAND KS
1100 PM MDT TUE JUN 30 2015

...OFFICIAL OBSERVATIONS...

CITY           SKY/WX    TMP DP  RH WIND       PRES   REMARKS
GOODLAND KS    NOT AVBL
HILL CITY KS   NOT AVBL
IMPERIAL NEB   NOT AVBL
MCCOOK NEB     NOT AVBL
AKRON CO       NOT AVBL
BURLINGTON CO  NOT AVBL
LIMON CO       NOT AVBL
$$

...UNOFFICIAL OBSERVATIONS...

CITY           SKY/WX    TMP DP  RH WIND       PRES   REMARKS
COLBY KS       CLEAR     81  55  41 S14       29.91R
GOVE KS          N/A     82  32  16 MISG        N/A
NORTON KS      CLEAR     82  45  26 S12       29.81F
SHARON SPRINGS   N/A     78  51  38 S12         N/A
KIT CARSON CO    N/A     74  49  41 MISG        N/A
$$


USA.gov is the U.S. government's official web portal to all federal, state and local government web resources and services.